Location: Cactus School
(34.5700°N, 118.0931°W)
Time: 12:22:42
(UTC-07:00)

A-11 Canister half - All Passes

Search period start: 19 April 2024 00:00
Search period end: 29 April 2024 00:00
Orbit: 1513 x 1686 km, 47.2° (Epoch: 18 April)

Date Brightness Start Highest point End Pass type
(mag) Time Alt. Az. Time Alt. Az. Time Alt. Az.
19 Apr - 08:29:09 10° SE 08:30:32 10° ESE 08:31:56 10° ESE daylight
19 Apr - 10:25:01 10° SSW 10:33:52 54° SE 10:42:55 10° ENE daylight
19 Apr - 12:29:41 10° WSW 12:38:47 58° NNW 12:48:12 10° NE daylight
19 Apr - 14:36:47 10° WNW 14:45:26 38° N 14:54:22 10° ENE daylight
19 Apr - 16:42:49 10° NW 16:52:13 54° NNE 17:01:57 10° E daylight
19 Apr - 18:47:52 10° WNW 18:57:29 63° SW 19:07:24 10° SE daylight
19 Apr - 20:56:06 10° W 21:01:14 15° WSW 21:06:25 10° SSW visible
20 Apr - 10:02:11 10° SSW 10:10:57 51° SE 10:19:52 10° ENE daylight
20 Apr - 12:06:37 10° WSW 12:15:45 60° NNW 12:25:10 10° NE daylight
20 Apr - 14:13:41 10° WNW 14:22:19 38° N 14:31:14 10° ENE daylight
20 Apr - 16:19:49 10° NW 16:29:09 52° NNE 16:38:47 10° E daylight
20 Apr - 18:24:52 10° WNW 18:34:31 67° SW 18:44:28 10° SE daylight
20 Apr - 20:32:36 10° W 20:38:19 17° WSW 20:44:08 10° SSW visible
21 Apr - 09:39:22 10° SSW 09:48:02 47° SE 09:56:49 10° ENE daylight
21 Apr - 11:43:35 10° WSW 11:52:44 63° NNW 12:02:09 10° NE daylight
21 Apr - 13:50:36 10° WNW 13:59:13 38° N 14:08:05 10° ENE daylight
21 Apr - 15:56:49 10° NW 16:06:05 50° NNE 16:15:38 10° E daylight
21 Apr - 18:01:51 10° WNW 18:11:32 71° SW 18:21:30 10° SE daylight
21 Apr - 20:09:11 10° W 20:15:24 19° SW 20:21:44 10° SSW visible
22 Apr - 09:16:35 10° SSW 09:25:07 44° SE 09:33:44 10° ENE daylight
22 Apr - 11:20:32 10° WSW 11:29:43 66° NNW 11:39:08 10° NE daylight
22 Apr - 13:27:31 10° WNW 13:36:06 39° N 13:44:58 10° ENE daylight
22 Apr - 15:33:50 10° NW 15:43:00 49° NNE 15:52:29 10° E daylight
22 Apr - 17:38:51 10° WNW 17:48:32 75° SW 17:58:32 10° SE daylight
22 Apr - 19:45:50 10° W 19:52:28 21° SW 19:59:16 10° SSW visible
23 Apr - 08:53:48 10° SSW 09:02:13 41° SE 09:10:39 10° ENE daylight
23 Apr - 10:57:30 10° WSW 11:06:42 69° NNW 11:16:08 10° NE daylight
23 Apr - 13:04:25 10° WNW 13:13:00 39° N 13:21:52 10° ENE daylight
23 Apr - 15:10:50 10° NW 15:19:56 47° NNE 15:29:19 10° E daylight
23 Apr - 17:15:53 10° NW 17:25:33 79° SW 17:35:33 10° SE daylight
23 Apr - 19:22:33 10° W 19:29:33 22° SW 19:36:44 10° S daylight
24 Apr - 08:31:04 10° SSW 08:39:18 38° SE 08:47:35 10° ENE daylight
24 Apr - 10:34:29 10° WSW 10:43:41 72° NNW 10:53:07 10° NE daylight
24 Apr - 12:41:19 10° WNW 12:49:54 39° N 12:58:45 10° ENE daylight
24 Apr - 14:47:50 10° NW 14:56:50 46° NNE 15:06:09 10° E daylight
24 Apr - 16:52:53 10° NW 17:02:33 84° SW 17:12:33 10° SE daylight
24 Apr - 18:59:18 10° WNW 19:06:38 24° SW 19:14:09 10° S daylight
25 Apr - 08:08:20 10° SSW 08:16:24 35° SE 08:24:28 10° ENE daylight
25 Apr - 10:11:28 10° WSW 10:20:42 75° NNW 10:30:07 10° NE daylight
25 Apr - 12:18:13 10° WNW 12:26:49 40° N 12:35:39 10° ENE daylight
25 Apr - 14:24:49 10° NW 14:33:45 44° NNE 14:42:59 10° E daylight
25 Apr - 16:29:55 10° NW 16:39:33 88° SW 16:49:32 10° SE daylight
25 Apr - 18:36:05 10° WNW 18:43:42 27° SW 18:51:32 10° S daylight
26 Apr - 07:45:38 10° S 07:53:30 32° SE 08:01:22 10° ENE daylight
26 Apr - 09:48:28 10° WSW 09:57:43 79° NW 10:07:07 10° NE daylight
26 Apr - 11:55:07 10° W 12:03:44 41° N 12:12:34 10° ENE daylight
26 Apr - 14:01:49 10° NW 14:10:40 43° NNE 14:19:48 10° E daylight
26 Apr - 16:06:56 10° NW 16:16:33 88° NE 16:26:31 10° SE daylight
26 Apr - 18:12:55 10° WNW 18:20:47 29° SW 18:28:52 10° S daylight
27 Apr - 07:22:57 10° S 07:30:35 30° SE 07:38:13 10° ENE daylight
27 Apr - 09:25:29 10° WSW 09:34:43 83° NW 09:44:06 10° NE daylight
27 Apr - 11:32:01 10° W 11:40:39 41° NNW 11:49:29 10° ENE daylight
27 Apr - 13:38:47 10° NW 13:47:35 42° NNE 13:56:39 10° E daylight
27 Apr - 15:43:57 10° NW 15:53:32 84° NE 16:03:29 10° SE daylight
27 Apr - 17:49:46 10° WNW 17:57:51 31° SW 18:06:10 10° S daylight
28 Apr - 07:00:19 10° S 07:07:42 28° SE 07:15:03 10° ENE daylight
28 Apr - 09:02:29 10° SW 09:11:45 87° NW 09:21:06 10° NE daylight
28 Apr - 11:08:54 10° W 11:17:34 42° NNW 11:26:25 10° NE daylight
28 Apr - 13:15:46 10° WNW 13:24:29 41° NNE 13:33:28 10° E daylight
28 Apr - 15:20:59 10° NW 15:30:32 81° NE 15:40:26 10° ESE daylight
28 Apr - 17:26:38 10° WNW 17:34:55 33° SW 17:43:27 10° S daylight
